Location: Izdebno
(52.6670°N, 16.2170°E)
Time: 17:18:18
(UTC+02:00)

Vanguard 3 - Visible Passes

Search period start: 25 July 2024 00:00
Search period end: 04 August 2024 00:00
Orbit: 508 x 3230 km, 33.3° (Epoch: 24 July)

Date Brightness Start Highest point End Pass type
(mag) Time Alt. Az. Time Alt. Az. Time Alt. Az.
25 Jul 10.0 01:16:18 10° SW 01:27:42 35° SSE 01:43:22 10° ESE visible
25 Jul 10.3 03:26:59 10° WSW 03:40:38 37° S 03:57:16 10° SE visible
25 Jul 10.1 21:56:43 10° SE 21:58:41 11° SE 22:00:47 10° ESE visible
25 Jul 9.9 23:59:20 10° SSW 00:08:38 28° SSE 00:21:46 10° ESE visible
26 Jul 10.0 02:08:34 10° WSW 02:20:44 37° S 02:37:04 10° ESE visible
26 Jul 10.4 04:20:22 10° WSW 04:33:49 31° SSW 04:49:23 10° SSE visible
26 Jul 9.9 22:43:35 10° S 22:50:19 19° SE 22:59:16 10° ESE visible
27 Jul 9.8 00:50:54 10° SW 01:01:15 33° SSE 01:16:02 10° ESE visible
27 Jul 10.2 03:01:20 10° WSW 03:13:54 35° S 03:30:04 10° SE visible
27 Jul 9.8 23:34:05 10° SSW 23:42:25 27° SSE 23:54:22 10° ESE visible
28 Jul 9.9 01:43:07 10° WSW 01:54:11 35° S 02:09:42 10° ESE visible
28 Jul 10.4 03:54:40 10° WSW 04:07:02 30° SSW 04:22:07 10° SSE visible
28 Jul 9.8 22:18:30 10° S 22:24:17 18° SE 22:31:54 10° ESE visible
29 Jul 9.7 00:25:38 10° SW 00:34:56 32° SSE 00:48:36 10° ESE visible
29 Jul 10.1 02:35:50 10° WSW 02:47:16 33° S 03:02:40 10° SE visible
29 Jul 9.6 23:08:57 10° SSW 23:16:19 25° SSE 23:26:56 10° ESE visible
30 Jul 9.8 01:17:49 10° SW 01:27:46 33° S 01:42:12 10° SE visible
30 Jul 10.3 03:29:08 10° WSW 03:40:21 27° SSW 03:54:35 10° SSE visible
30 Jul 9.7 21:53:32 10° S 21:58:20 16° SE 22:04:33 10° ESE visible
31 Jul 9.6 00:00:28 10° SW 00:08:45 29° SSE 00:21:05 10° ESE visible
31 Jul 10.0 02:10:29 10° WSW 02:20:46 30° S 02:35:03 10° SE visible
31 Jul 10.6 04:23:29 10° WSW 04:33:16 20° SSW 04:44:50 10° S visible
31 Jul 9.5 22:43:55 10° SSW 22:50:19 23° SSE 22:59:32 10° ESE visible
01 Aug 9.7 00:52:36 10° SW 01:01:29 30° S 01:14:36 10° SE visible
01 Aug 10.2 03:03:47 10° WSW 03:13:47 25° SSW 03:26:48 10° SSE visible
01 Aug 9.6 21:28:43 10° S 21:32:30 14° SE 21:37:12 10° ESE visible
01 Aug 9.5 23:35:24 10° SW 23:42:41 27° SSE 23:53:34 10° ESE visible
02 Aug 9.9 01:45:16 10° WSW 01:54:24 28° S 02:07:18 10° SE visible
02 Aug 10.5 03:58:21 10° WSW 04:06:40 17° SSW 04:16:38 10° S visible
02 Aug 9.4 22:18:57 10° SSW 22:24:27 20° SSE 22:32:10 10° ESE visible
03 Aug 9.6 00:27:31 10° SW 00:35:21 28° S 00:46:55 10° SE visible
03 Aug 10.1 02:38:37 10° WSW 02:47:20 22° SSW 02:58:49 10° SSE visible
03 Aug 9.4 23:10:25 10° SW 23:16:45 24° SSE 23:20:11 21° SE visible
